IGO501 VOHS-VEBN

Flight info

Callsign IGO501
Flight time 1h 35m
Altitude 33000
Route HIA Q16 RRP DCT IBUDA DCT BBN
Aircraft A320/M-SDE3FGHIRWY/LB1

Departure

Time 2026-05-07 10:55
Airport Rajiv Gandhi International Airport (VOHS)

Arrival

Time 2026-05-07 12:30
Airport Lal Bahadur Shastri International Airport (VEBN)
Time Latitude Longitude Altitude Speed Heading
2026-05-07 10:21 17.23421 78.43109 1984 ft 0 kts 340°
2026-05-07 10:40 17.23417 78.43110 1985 ft 2 kts 340°
2026-05-07 10:40 17.23401 78.43117 1984 ft 2 kts 343°
2026-05-07 10:40 17.23385 78.43115 1984 ft 3 kts 57°
2026-05-07 10:40 17.23380 78.43107 1983 ft 0 kts 97°
2026-05-07 10:47 17.23379 78.43111 1984 ft 2 kts 104°
2026-05-07 10:48 17.23368 78.43129 1984 ft 4 kts 127°
2026-05-07 10:48 17.23343 78.43148 1984 ft 5 kts 147°
2026-05-07 10:48 17.23309 78.43162 1985 ft 0 kts 164°
2026-05-07 10:48 17.23307 78.43163 1985 ft 1 kts 164°
2026-05-07 10:49 17.23304 78.43164 1985 ft 1 kts 163°
2026-05-07 10:49 17.23293 78.43167 1985 ft 3 kts 163°
2026-05-07 10:49 17.23270 78.43178 1985 ft 6 kts 160°
2026-05-07 10:49 17.23231 78.43201 1984 ft 6 kts 102°
2026-05-07 10:50 17.23228 78.43214 1984 ft 0 kts 104°
2026-05-07 10:50 17.23217 78.43221 1985 ft 9 kts 147°
2026-05-07 10:50 17.23109 78.43315 1985 ft 31 kts 118°
2026-05-07 10:50 17.23102 78.43565 1989 ft 42 kts 91°
2026-05-07 10:51 17.23096 78.43886 1993 ft 46 kts 91°
2026-05-07 10:51 17.23099 78.44229 1999 ft 49 kts 89°
2026-05-07 10:51 17.23102 78.44556 2003 ft 43 kts 89°
2026-05-07 10:51 17.23105 78.44842 2005 ft 28 kts 89°
2026-05-07 10:52 17.23107 78.45006 2007 ft 22 kts 89°
2026-05-07 10:52 17.23108 78.45165 2009 ft 16 kts 89°
2026-05-07 10:52 17.23099 78.45282 2009 ft 16 kts 118°
2026-05-07 10:52 17.23052 78.45317 2009 ft 2 kts 167°
2026-05-07 10:53 17.23051 78.45317 2011 ft 0 kts 167°
2026-05-07 10:53 17.23036 78.45319 2008 ft 9 kts 174°
2026-05-07 10:53 17.22934 78.45262 2008 ft 27 kts 227°
2026-05-07 10:54 17.22909 78.45008 2008 ft 46 kts 268°
2026-05-07 10:54 17.22899 78.44509 2001 ft 105 kts 269°
2026-05-07 10:54 17.22877 78.43486 1990 ft 172 kts 269°
2026-05-07 10:54 17.22886 78.42059 2153 ft 215 kts 271°
2026-05-07 10:55 17.22843 78.40429 2700 ft 231 kts 267°
2026-05-07 10:55 17.22760 78.38690 3422 ft 249 kts 265°
2026-05-07 10:55 17.22624 78.36815 4228 ft 267 kts 264°
2026-05-07 10:55 17.22434 78.34832 5141 ft 281 kts 263°
2026-05-07 10:56 17.22194 78.32774 6117 ft 289 kts 262°
2026-05-07 10:56 17.21908 78.30677 7040 ft 295 kts 261°
2026-05-07 10:56 17.21600 78.28485 7351 ft 327 kts 261°
2026-05-07 10:56 17.20919 78.26090 7358 ft 362 kts 242°
2026-05-07 10:57 17.19428 78.24001 7353 ft 350 kts 222°
2026-05-07 10:57 17.17500 78.22603 7469 ft 326 kts 204°
2026-05-07 10:57 17.15422 78.21932 8310 ft 302 kts 187°
2026-05-07 10:57 17.13402 78.21842 9633 ft 281 kts 174°
2026-05-07 10:58 17.11559 78.22235 10769 ft 264 kts 160°
2026-05-07 10:58 17.09920 78.23056 11561 ft 261 kts 146°
2026-05-07 10:58 17.08529 78.24280 12221 ft 264 kts 132°
2026-05-07 10:58 17.07462 78.25817 12837 ft 267 kts 118°
2026-05-07 10:59 17.06755 78.27626 13447 ft 272 kts 104°
2026-05-07 10:59 17.06481 78.29591 14009 ft 276 kts 90°
2026-05-07 10:59 17.06677 78.31585 14563 ft 278 kts 76°
2026-05-07 10:59 17.07343 78.33485 15090 ft 281 kts 60°
2026-05-07 11:00 17.08462 78.35160 15609 ft 282 kts 45°
2026-05-07 11:00 17.09954 78.36491 16155 ft 283 kts 31°
2026-05-07 11:00 17.11721 78.37384 16689 ft 283 kts 15°
2026-05-07 11:00 17.13598 78.37924 17218 ft 285 kts 13°
2026-05-07 11:01 17.15515 78.38461 17786 ft 286 kts 13°
2026-05-07 11:01 17.17443 78.39007 18306 ft 288 kts 13°
2026-05-07 11:01 17.19386 78.39558 18773 ft 290 kts 13°
2026-05-07 11:01 17.21327 78.40175 19211 ft 293 kts 19°
2026-05-07 11:02 17.23195 78.41059 19664 ft 297 kts 26°
2026-05-07 11:02 17.24948 78.42217 20105 ft 300 kts 34°
2026-05-07 11:02 17.26601 78.43576 20516 ft 304 kts 36°
2026-05-07 11:02 17.28263 78.44954 20942 ft 306 kts 35°
2026-05-07 11:03 17.29919 78.46325 21355 ft 309 kts 35°
2026-05-07 11:03 17.31627 78.47737 21565 ft 319 kts 35°
2026-05-07 11:03 17.33405 78.49204 21695 ft 332 kts 35°
2026-05-07 11:03 17.35247 78.50723 21817 ft 343 kts 35°
2026-05-07 11:04 17.37158 78.52302 21865 ft 357 kts 35°
2026-05-07 11:04 17.39145 78.53945 21867 ft 371 kts 35°
2026-05-07 11:04 17.41212 78.55652 21867 ft 385 kts 35°
2026-05-07 11:04 17.43355 78.57423 21868 ft 399 kts 36°
2026-05-07 11:05 17.45564 78.59252 21867 ft 409 kts 36°
2026-05-07 11:05 17.47774 78.61088 21868 ft 412 kts 36°
2026-05-07 11:05 17.50022 78.62957 21869 ft 413 kts 36°
2026-05-07 11:05 17.52275 78.64833 21869 ft 414 kts 36°
2026-05-07 11:06 17.54527 78.66707 21868 ft 413 kts 36°
2026-05-07 11:06 17.56780 78.68580 21876 ft 414 kts 36°
2026-05-07 11:06 17.59040 78.70455 21873 ft 415 kts 36°
2026-05-07 11:06 17.61313 78.72341 22084 ft 418 kts 36°
2026-05-07 11:07 17.63597 78.74240 22488 ft 420 kts 36°
2026-05-07 11:07 17.65894 78.76152 22838 ft 423 kts 35°
2026-05-07 11:07 17.68203 78.78073 23189 ft 425 kts 35°
2026-05-07 11:07 17.70525 78.80005 23503 ft 427 kts 35°
2026-05-07 11:08 17.72862 78.81951 23773 ft 430 kts 35°
2026-05-07 11:08 17.75178 78.83880 24028 ft 432 kts 35°
2026-05-07 11:08 17.77535 78.85844 24306 ft 434 kts 35°
2026-05-07 11:08 17.79905 78.87822 24562 ft 437 kts 35°
2026-05-07 11:09 17.82292 78.89815 24824 ft 440 kts 35°
2026-05-07 11:09 17.84696 78.91819 25091 ft 442 kts 35°
2026-05-07 11:09 17.87108 78.93827 25380 ft 444 kts 35°
2026-05-07 11:09 17.89539 78.95850 25656 ft 447 kts 35°
2026-05-07 11:10 17.91980 78.97880 25931 ft 449 kts 36°
2026-05-07 11:10 17.94430 78.99922 26199 ft 451 kts 36°
2026-05-07 11:10 17.96858 79.01952 26457 ft 453 kts 36°
2026-05-07 11:10 17.99329 79.04021 26727 ft 455 kts 36°
2026-05-07 11:11 18.01810 79.06099 26992 ft 457 kts 36°
2026-05-07 11:11 18.04308 79.08191 27209 ft 461 kts 36°
2026-05-07 11:11 18.06822 79.10296 27444 ft 464 kts 36°
2026-05-07 11:11 18.09354 79.12413 27700 ft 466 kts 36°
2026-05-07 11:12 18.11895 79.14537 27954 ft 468 kts 36°
2026-05-07 11:12 18.14451 79.16675 28228 ft 470 kts 36°
2026-05-07 11:12 18.17011 79.18818 28495 ft 472 kts 36°
2026-05-07 11:12 18.19551 79.20945 28765 ft 474 kts 36°
2026-05-07 11:13 18.22138 79.23114 29030 ft 477 kts 36°
2026-05-07 11:13 18.24738 79.25296 29291 ft 479 kts 36°
2026-05-07 11:13 18.27349 79.27489 29551 ft 481 kts 36°
2026-05-07 11:13 18.29973 79.29695 29796 ft 484 kts 36°
2026-05-07 11:14 18.32609 79.31910 30030 ft 486 kts 36°
2026-05-07 11:14 18.35256 79.34133 30265 ft 487 kts 36°
2026-05-07 11:14 18.37905 79.36357 30603 ft 486 kts 36°
2026-05-07 11:14 18.40541 79.38574 30954 ft 485 kts 36°
2026-05-07 11:15 18.43173 79.40790 31305 ft 483 kts 36°
2026-05-07 11:15 18.45758 79.42967 31668 ft 482 kts 36°
2026-05-07 11:15 18.48379 79.45173 32002 ft 482 kts 36°
2026-05-07 11:15 18.50995 79.47374 32357 ft 481 kts 36°
2026-05-07 11:16 18.53607 79.49574 32702 ft 481 kts 36°
2026-05-07 11:16 18.56214 79.51771 32802 ft 479 kts 36°
2026-05-07 11:16 18.61385 79.56126 32823 ft 474 kts 36°
2026-05-07 11:17 18.66499 79.60440 32824 ft 474 kts 36°
2026-05-07 11:17 18.71639 79.64784 32821 ft 473 kts 36°
2026-05-07 11:18 18.76776 79.69132 32821 ft 473 kts 36°
2026-05-07 11:18 18.81931 79.73452 32818 ft 473 kts 35°
2026-05-07 11:19 18.87114 79.77658 32815 ft 473 kts 34°
2026-05-07 11:19 18.92343 79.81890 32805 ft 474 kts 35°
2026-05-07 11:20 18.97571 79.86150 32800 ft 475 kts 35°
2026-05-07 11:20 19.02804 79.90429 32803 ft 476 kts 35°
2026-05-07 11:21 19.08001 79.94690 32804 ft 476 kts 35°
2026-05-07 11:21 19.13240 79.98983 32810 ft 477 kts 35°
2026-05-07 11:22 19.18483 80.03278 32815 ft 477 kts 35°
2026-05-07 11:22 19.23727 80.07577 32829 ft 477 kts 34°
2026-05-07 11:23 19.28933 80.11853 32830 ft 477 kts 34°
2026-05-07 11:23 19.34175 80.16160 32829 ft 477 kts 34°
2026-05-07 11:24 19.39417 80.20470 32835 ft 477 kts 35°
2026-05-07 11:24 19.44659 80.24794 32826 ft 478 kts 35°
2026-05-07 11:25 19.49871 80.29088 32825 ft 478 kts 35°
2026-05-07 11:25 19.55123 80.33415 32847 ft 478 kts 34°
2026-05-07 11:26 19.60378 80.37751 32845 ft 479 kts 34°
2026-05-07 11:26 19.65633 80.42091 32842 ft 479 kts 34°
2026-05-07 11:27 19.70893 80.46437 32843 ft 479 kts 34°
2026-05-07 11:27 19.76118 80.50755 32843 ft 479 kts 34°
2026-05-07 11:28 19.81370 80.55112 32845 ft 479 kts 34°
2026-05-07 11:28 19.86626 80.59474 32831 ft 480 kts 34°
2026-05-07 11:29 19.91886 80.63845 32855 ft 480 kts 34°
2026-05-07 11:29 19.97122 80.68193 32834 ft 481 kts 34°
2026-05-07 11:30 20.02405 80.72577 32837 ft 482 kts 34°
2026-05-07 11:30 20.07689 80.76974 32845 ft 482 kts 34°
2026-05-07 11:31 20.12542 80.81012 32849 ft 483 kts 34°
2026-05-07 11:31 20.14311 80.82486 32847 ft 483 kts 34°
2026-05-07 11:32 20.22232 80.89102 32851 ft 483 kts 34°
2026-05-07 11:33 20.27524 80.93505 32857 ft 483 kts 34°
2026-05-07 11:33 20.32817 80.97912 32845 ft 483 kts 34°
2026-05-07 11:34 20.38071 81.02312 32835 ft 484 kts 34°
2026-05-07 11:34 20.43361 81.06753 32838 ft 484 kts 34°
2026-05-07 11:35 20.48661 81.11191 32839 ft 485 kts 34°
2026-05-07 11:35 20.53965 81.15633 32835 ft 485 kts 34°
2026-05-07 11:36 20.59265 81.20080 32862 ft 485 kts 34°
2026-05-07 11:36 20.64523 81.24496 32855 ft 484 kts 34°
2026-05-07 11:37 20.69816 81.28938 32834 ft 484 kts 34°
2026-05-07 11:37 20.75107 81.33386 32829 ft 484 kts 34°
2026-05-07 11:38 20.80349 81.37840 32817 ft 485 kts 36°
2026-05-07 11:38 20.85435 81.42602 32816 ft 487 kts 39°
2026-05-07 11:39 20.89552 81.46713 32818 ft 487 kts 40°
2026-05-07 11:39 20.94520 81.51644 32836 ft 487 kts 38°
2026-05-07 11:40 21.00361 81.57306 32809 ft 487 kts 38°
2026-05-07 11:40 21.05408 81.62152 32803 ft 488 kts 38°
2026-05-07 11:41 21.09600 81.66201 32801 ft 488 kts 38°
2026-05-07 11:41 21.14659 81.71063 32792 ft 487 kts 34°
2026-05-07 11:42 21.20442 81.74639 32790 ft 476 kts 15°
2026-05-07 11:42 21.27823 81.76552 32820 ft 469 kts
2026-05-07 11:43 21.33181 81.77722 32823 ft 469 kts
2026-05-07 11:43 21.39528 81.79130 32816 ft 469 kts
2026-05-07 11:44 21.45922 81.80554 32812 ft 469 kts
2026-05-07 11:44 21.52310 81.81971 32810 ft 469 kts
2026-05-07 11:45 21.58700 81.83379 32807 ft 469 kts
2026-05-07 11:45 21.65047 81.84773 32825 ft 469 kts
2026-05-07 11:46 21.71437 81.86189 32817 ft 469 kts
2026-05-07 11:46 21.77826 81.87604 32816 ft 469 kts
2026-05-07 11:47 21.84213 81.89019 32807 ft 469 kts
2026-05-07 11:47 21.90557 81.90433 32804 ft 469 kts
2026-05-07 11:48 21.96944 81.91858 32804 ft 469 kts
2026-05-07 11:48 22.03331 81.93281 32812 ft 469 kts
2026-05-07 11:49 22.09720 81.94703 32810 ft 469 kts
2026-05-07 11:49 22.16104 81.96123 32814 ft 469 kts
2026-05-07 11:50 22.22453 81.97535 32815 ft 469 kts
2026-05-07 11:50 22.28842 81.98965 32832 ft 468 kts
2026-05-07 11:51 22.35214 82.00395 32827 ft 467 kts
2026-05-07 11:51 22.41583 82.01820 32835 ft 467 kts
2026-05-07 11:52 22.47909 82.03233 32832 ft 468 kts
2026-05-07 11:52 22.54278 82.04662 32836 ft 468 kts
2026-05-07 11:53 22.60652 82.06093 32859 ft 467 kts
2026-05-07 11:53 22.67011 82.07518 32854 ft 466 kts
2026-05-07 11:54 22.73353 82.08949 32849 ft 466 kts
2026-05-07 11:54 22.79650 82.10366 32847 ft 465 kts
2026-05-07 11:55 22.85993 82.11787 32834 ft 465 kts
2026-05-07 11:55 22.92335 82.13218 32853 ft 466 kts
2026-05-07 11:56 22.98681 82.14659 32832 ft 466 kts
2026-05-07 11:56 23.04995 82.16084 32830 ft 467 kts
2026-05-07 11:57 23.11364 82.17528 32797 ft 469 kts
2026-05-07 11:57 23.17767 82.18987 32793 ft 472 kts
2026-05-07 11:58 23.24207 82.20458 32823 ft 474 kts
2026-05-07 11:58 23.30679 82.21939 32817 ft 476 kts
2026-05-07 11:59 23.37131 82.23418 32812 ft 478 kts
2026-05-07 11:59 23.43642 82.24912 32825 ft 479 kts
2026-05-07 12:00 23.50147 82.26580 32858 ft 484 kts 10°
2026-05-07 12:00 23.56527 82.28844 32742 ft 477 kts 11°
2026-05-07 12:00 23.59679 82.30001 31726 ft 484 kts 11°
2026-05-07 12:01 23.62890 82.31174 30282 ft 503 kts 12°
2026-05-07 12:01 23.66237 82.32399 29098 ft 510 kts 13°
2026-05-07 12:01 23.69603 82.33634 28059 ft 510 kts 13°
2026-05-07 12:01 23.72967 82.34868 27046 ft 510 kts 14°
2026-05-07 12:02 23.76304 82.36093 26579 ft 498 kts 14°
2026-05-07 12:02 23.79537 82.37281 26332 ft 482 kts 14°
2026-05-07 12:02 23.82665 82.38427 26077 ft 467 kts 13°
2026-05-07 12:02 23.85701 82.39534 25849 ft 453 kts 13°
2026-05-07 12:03 23.88610 82.40591 25632 ft 441 kts 13°
2026-05-07 12:03 23.91483 82.41636 25391 ft 430 kts 14°
2026-05-07 12:03 23.94286 82.42657 25158 ft 419 kts 13°
2026-05-07 12:03 23.97025 82.43653 24925 ft 411 kts 13°
2026-05-07 12:04 23.99710 82.44627 24699 ft 402 kts 13°
2026-05-07 12:04 24.02343 82.45583 24473 ft 396 kts 14°
2026-05-07 12:04 24.04946 82.46531 24250 ft 393 kts 14°
2026-05-07 12:04 24.07535 82.47476 24020 ft 391 kts 14°
2026-05-07 12:05 24.10108 82.48416 23789 ft 389 kts 14°
2026-05-07 12:05 24.12635 82.49340 23583 ft 387 kts 14°
2026-05-07 12:05 24.15184 82.50272 23364 ft 385 kts 14°
2026-05-07 12:05 24.17724 82.51202 22902 ft 387 kts 14°
2026-05-07 12:06 24.20321 82.52149 21834 ft 400 kts 14°
2026-05-07 12:06 24.23007 82.53127 20735 ft 414 kts 14°
2026-05-07 12:06 24.25777 82.54140 19607 ft 426 kts 15°
2026-05-07 12:06 24.28619 82.55181 18427 ft 436 kts 15°
2026-05-07 12:07 24.31527 82.56252 17276 ft 443 kts 15°
2026-05-07 12:07 24.34417 82.57323 16822 ft 431 kts 15°
2026-05-07 12:07 24.37172 82.58347 16571 ft 417 kts 15°
2026-05-07 12:07 24.39875 82.59346 16306 ft 403 kts 15°
2026-05-07 12:08 24.42492 82.60311 16068 ft 391 kts 14°
2026-05-07 12:08 24.45028 82.61245 15815 ft 379 kts 14°
2026-05-07 12:08 24.47492 82.62150 15565 ft 368 kts 14°
2026-05-07 12:08 24.49950 82.63049 14630 ft 379 kts 14°
2026-05-07 12:09 24.52492 82.63973 13577 ft 392 kts 14°
2026-05-07 12:09 24.55108 82.64927 12709 ft 396 kts 14°
2026-05-07 12:09 24.57672 82.65875 12447 ft 382 kts 14°
2026-05-07 12:09 24.60111 82.66783 12204 ft 368 kts 14°
2026-05-07 12:10 24.62497 82.67673 11956 ft 357 kts 14°
2026-05-07 12:10 24.64812 82.68533 11719 ft 346 kts 14°
2026-05-07 12:10 24.67066 82.69364 11469 ft 337 kts 14°
2026-05-07 12:10 24.69263 82.70171 11229 ft 329 kts 14°
2026-05-07 12:11 24.71409 82.70961 10992 ft 322 kts 13°
2026-05-07 12:11 24.73515 82.71738 10753 ft 316 kts 13°
2026-05-07 12:11 24.75585 82.72503 10510 ft 311 kts 13°
2026-05-07 12:11 24.77592 82.73248 10287 ft 306 kts 13°
2026-05-07 12:12 24.79591 82.73987 10058 ft 301 kts 13°
2026-05-07 12:12 24.81556 82.74714 9825 ft 296 kts 13°
2026-05-07 12:12 24.83483 82.75428 9686 ft 287 kts 13°
2026-05-07 12:12 24.85349 82.76122 9565 ft 279 kts 12°
2026-05-07 12:13 24.87161 82.76794 9436 ft 271 kts 12°
2026-05-07 12:13 24.88921 82.77445 9310 ft 263 kts 12°
2026-05-07 12:13 24.90634 82.78080 9071 ft 260 kts 12°
2026-05-07 12:13 24.92406 82.78729 8334 ft 277 kts 13°
2026-05-07 12:14 24.94263 82.79407 7711 ft 289 kts 14°
2026-05-07 12:14 24.96140 82.80102 7552 ft 281 kts 14°
2026-05-07 12:14 24.98037 82.80805 6804 ft 296 kts 14°
2026-05-07 12:14 25.00048 82.81548 5954 ft 313 kts 15°
2026-05-07 12:15 25.02160 82.82330 5001 ft 328 kts 17°
2026-05-07 12:15 25.04353 82.83146 4459 ft 330 kts 17°
2026-05-07 12:15 25.06483 82.83942 4339 ft 316 kts 17°
2026-05-07 12:15 25.08521 82.84706 4206 ft 303 kts 17°
2026-05-07 12:16 25.10476 82.85438 4089 ft 291 kts 17°
2026-05-07 12:16 25.12356 82.86139 3966 ft 280 kts 17°
2026-05-07 12:16 25.14146 82.86807 3844 ft 270 kts 17°
2026-05-07 12:16 25.15898 82.87462 3730 ft 261 kts 17°
2026-05-07 12:17 25.17551 82.88196 3608 ft 252 kts 26°
2026-05-07 12:17 25.18977 82.89266 3487 ft 245 kts 39°
2026-05-07 12:17 25.20121 82.90612 3373 ft 237 kts 52°
2026-05-07 12:17 25.20958 82.92142 3252 ft 230 kts 63°
2026-05-07 12:18 25.21489 82.93780 3134 ft 225 kts 72°
2026-05-07 12:18 25.22038 82.95379 3011 ft 222 kts 64°
2026-05-07 12:18 25.22663 82.96930 2887 ft 221 kts 64°
2026-05-07 12:18 25.23273 82.98448 2771 ft 215 kts 63°
2026-05-07 12:19 25.23886 82.99919 2652 ft 206 kts 58°
2026-05-07 12:19 25.24652 83.01218 2533 ft 200 kts 52°
2026-05-07 12:19 25.25453 83.02460 2433 ft 198 kts 52°
2026-05-07 12:19 25.26243 83.03644 2366 ft 182 kts 48°
2026-05-07 12:20 25.27072 83.04605 2329 ft 165 kts 43°
2026-05-07 12:20 25.27842 83.05467 2324 ft 152 kts 42°
2026-05-07 12:20 25.28576 83.06289 2333 ft 149 kts 43°
2026-05-07 12:20 25.29304 83.07060 2333 ft 145 kts 38°
2026-05-07 12:21 25.30122 83.07733 2334 ft 147 kts 33°
2026-05-07 12:21 25.30959 83.08386 2329 ft 147 kts 33°
2026-05-07 12:21 25.31794 83.09040 2336 ft 147 kts 32°
2026-05-07 12:21 25.32631 83.09691 2334 ft 147 kts 31°
2026-05-07 12:22 25.33532 83.10224 2342 ft 143 kts 23°
2026-05-07 12:22 25.34421 83.10691 2336 ft 142 kts 25°
2026-05-07 12:22 25.35313 83.11159 2333 ft 142 kts 24°
2026-05-07 12:22 25.36203 83.11625 2337 ft 141 kts 24°
2026-05-07 12:23 25.37096 83.12026 2339 ft 140 kts 14°
2026-05-07 12:23 25.38030 83.12328 2335 ft 140 kts 14°
2026-05-07 12:23 25.38958 83.12631 2333 ft 140 kts 15°
2026-05-07 12:23 25.39901 83.12937 2338 ft 142 kts 15°
2026-05-07 12:24 25.40869 83.13139 2342 ft 142 kts 360°
2026-05-07 12:24 25.41833 83.12996 2334 ft 140 kts 343°
2026-05-07 12:24 25.42703 83.12533 2336 ft 140 kts 327°
2026-05-07 12:24 25.43402 83.11796 2339 ft 141 kts 308°
2026-05-07 12:25 25.43824 83.10812 2333 ft 144 kts 279°
2026-05-07 12:25 25.43944 83.09709 2333 ft 144 kts 279°
2026-05-07 12:25 25.44044 83.08618 2337 ft 145 kts 279°
2026-05-07 12:25 25.44121 83.07506 2333 ft 146 kts 278°
2026-05-07 12:26 25.44189 83.06380 2340 ft 147 kts 278°
2026-05-07 12:26 25.44250 83.05255 2332 ft 147 kts 276°
2026-05-07 12:26 25.44310 83.04122 2336 ft 147 kts 277°
2026-05-07 12:26 25.44368 83.02992 2334 ft 147 kts 277°
2026-05-07 12:27 25.44426 83.01866 2337 ft 147 kts 276°
2026-05-07 12:27 25.44483 83.00734 2335 ft 148 kts 277°
2026-05-07 12:27 25.44541 82.99590 2263 ft 149 kts 276°
2026-05-07 12:27 25.44598 82.98468 2116 ft 148 kts 276°
2026-05-07 12:28 25.44656 82.97324 1943 ft 149 kts 276°
2026-05-07 12:28 25.44713 82.96179 1763 ft 150 kts 276°
2026-05-07 12:28 25.44771 82.95027 1567 ft 149 kts 276°
2026-05-07 12:28 25.44828 82.93886 1388 ft 148 kts 276°
2026-05-07 12:29 25.44884 82.92764 1196 ft 146 kts 277°
2026-05-07 12:29 25.44940 82.91645 1023 ft 146 kts 276°
2026-05-07 12:29 25.44996 82.90535 842 ft 146 kts 275°
2026-05-07 12:29 25.45051 82.89421 653 ft 144 kts 274°
2026-05-07 12:30 25.45106 82.88316 461 ft 143 kts 274°
2026-05-07 12:30 25.45161 82.87218 281 ft 142 kts 273°
2026-05-07 12:30 25.45203 82.86395 277 ft 64 kts 273°
2026-05-07 12:30 25.45216 82.86119 278 ft 30 kts 273°
2026-05-07 12:31 25.45229 82.85862 278 ft 36 kts 273°
2026-05-07 12:31 25.45241 82.85604 276 ft 25 kts 270°
2026-05-07 12:31 25.45156 82.85549 277 ft 14 kts 179°
2026-05-07 12:31 25.45044 82.85538 277 ft 18 kts 184°
2026-05-07 12:32 25.44991 82.85535 277 ft 0 kts 182°